Location: Korczew
(51.3586°N, 19.4491°E)
Time: 17:49:49
(UTC+00:00)

USA 234 - Pass Details

Date: 19 May 2025
Orbit: 1097 x 1111 km, 123.0° (Epoch: 19 June)

Event Time Altitude Azimuth Distance (km) Brightness Sun altitude
Rises 20:45:44 0° 60° (ENE) 3,924 6.2 -14.5°
Reaches altitude 10° 20:48:13 10° 60° (ENE) 2,966 5.6 -14.7°
Maximum altitude 20:54:47 86° 334° (NNW) 1,113 3.3 -15.1°
Drops below altitude 10° 21:01:21 10° 245° (WSW) 2,967 5.5 -15.5°
Sets 21:03:50 0° 245° (WSW) 3,925 6.2 -15.7°
